Regional Weather Roundup
Issued by NWS Jackson, KY

Home | Current Version | Previous Version | Text Only | Print | Product List | Glossary Off
Versions: 1 2 3 4 5 6 7 8 9 10 11 12 13 14 15 16 17 18 19 20 21 22 23 24 25 26 27 28 29 30 31 32 33 34 35 36 37 38 39 40 41 42 43 44 45 46 47 48 49 50

056
ASUS43 KJKL 231410
RWRJKL

EAST KENTUCKY HOURLY WEATHER ROUNDUP
NATIONAL WEATHER SERVICE JACKSON KY
1000 AM EDT FRI JUN 23 2017

NOTE: "FAIR" INDICATES FEW OR NO CLOUDS BELOW 12,000 FEET WITH
NO SIGNIFICANT WEATHER AND/OR OBSTRUCTIONS TO VISIBILITY.

* THESE REPORTS ARE NOT UNDER NWS QUALITY CONTROL AND MAY NOT
  REPORT WEATHER SUCH AS PRECIPITATION AND FOG.

KYZ079-080-083-085-087-088-110-112-115-119-120-231500
...EASTERN KENTUCKY...

CITY           SKY/WX    TMP DP  RH WIND       PRES   REMARKS
JACKSON        CLOUDY    75  70  84 VRB3      29.91S
LONDON         CLOUDY    74  70  87 S9        29.91F
SOMERSET*      CLOUDY    73  72  94 S6        29.90S FOG
MONTICELLO*    CLOUDY    78  71  79 VRB5G22   29.90F
WILLIAMSBURG*  PTSUNNY   75  75 100 S6        29.92S
MIDDLESBORO*   LGT RAIN  73  70  89 S9G26     29.95S
HARLAN APT*    CLOUDY    70  66  88 SW5       29.97R
PIKE CO APT*   CLOUDY    74  72  91 SW6       29.92F
BIG SANDY APT* CLOUDY    77  71  81 SW10G16   29.90S
MOREHEAD APT*  CLOUDY    79  70  73 SW13G23   29.86S HAZE
$$

KYZ035-036-041-042-044-050-067-078-099-231500
...CENTRAL KENTUCKY...

CITY           SKY/WX    TMP DP  RH WIND       PRES   REMARKS
MT STERLING*   PTSUNNY   79  72  78 W13G23    29.86S
FLEMING/MASON* CLOUDY    77  72  83 SW18G24   29.83S
DANVILLE*      CLOUDY    77  70  78 SW12G20   29.87S
LEXINGTON      CLOUDY    79  69  71 SW16      29.84S
FRANKFORT      CLOUDY    80  71  74 SW12G24   29.81S
LOUISVILLE     CLOUDY    81  72  74 S14G20    29.78F
LEBANON*       CLOUDY    77  72  83 S20       29.84S
GLASGOW*       CLOUDY    80  70  70 S13G22    29.83F
BOWLING GREEN  CLOUDY    81  72  74 S18G30    29.81F
$$

KYZ091>093-OHZ055-061-077-WVZ005-015-034-035-042-231500
...SOUTHERN OHIO/WEST VIRGINIA...

CITY           SKY/WX    TMP DP  RH WIND       PRES   REMARKS
COVINGTON      CLOUDY    77  73  87 SW17G29   29.76F
COLUMBUS       LGT RAIN  74  74 100 S10       29.74S
DAYTON         HVY RAIN  73  72  96 SW14G21   29.74S VSB 1
WILMINGTON     CLOUDY    74  74 100 SW14G25   29.76S
HUNTINGTON     PTSUNNY   79  71  76 SW10G20   29.84S
CHARLESTON     CLOUDY    79  69  71 SW14G23   29.86S
PINEVILLE*     DRIZZLE   72  68  88 MISG      30.01S
BECKLEY        CLOUDY    70  65  84 SW15G24   29.99R
BLUEFIELD      LGT RAIN  68  64  87 W16G24    30.02S
LOGAN CO APT*  CLOUDY    73  68  83 VRB3G15   29.92S
$$

VAZ002-007-008-TNZ017-027-036-066-071-231500
...SOUTHWEST VIRGINIA/EAST TENNESSEE...

CITY           SKY/WX    TMP DP  RH WIND       PRES   REMARKS
WISE*          CLOUDY    70  70 100 SW20G25   30.02F
JONESVILLE*    LGT RAIN  73  70  88 SW3       29.99S
ABINGDON*      PTSUNNY   74  72  91 NW5       30.01F
BRISTOL        LGT RAIN  76  69  79 CALM      29.98F
MORRISTOWN*    PTSUNNY   75  70  83 W8        29.97R HAZE
SEVIERVILLE*   PTSUNNY   81  70  69 W6        29.95R
KNOXVILLE      CLOUDY    76  67  73 SW18G28   29.95R
LAFOLLETTE*    CLOUDY    73  70  88 VRB6G12   29.98R FOG
OAK RIDGE      LGT RAIN  74  70  87 S6        29.96S
CROSSVILLE     CLOUDY    73  69  87 SW10G20   29.97S
NASHVILLE      MOSUNNY   83  71  67 S20G26    29.85S
$$

...KEY TO REMARKS...
VSB - VISIBILITY IN MILES
WCI - WIND CHILL INDEX
HX  - HEAT INDEX

$$




USA.gov is the U.S. government's official web portal to all federal, state and local government web resources and services.